Time,TemperatureF,DewpointF,PressureIn,WindDirection,WindDirectionDegrees,WindSpeedMPH,WindSpeedGustMPH,Humidity,HourlyPrecipIn,Conditions,Clouds,dailyrainin,SoftwareType,DateUTC
2013-02-21 00:00:00,15.4,11.4,29.95,WSW,253,6.0,20.0,84,0.00,,,0.00,Wunderground v.1.15,2013-02-21 05:00:00,
2013-02-21 00:01:00,15.4,11.4,29.95,West,274,6.0,20.0,84,0.00,,,0.00,Wunderground v.1.15,2013-02-21 05:01:00,
2013-02-21 00:02:00,15.4,11.4,29.95,WNW,300,6.0,20.0,84,0.00,,,0.00,Wunderground v.1.15,2013-02-21 05:02:00,
2013-02-21 00:03:00,15.4,11.4,29.95,WSW,248,6.0,20.0,84,0.00,,,0.00,Wunderground v.1.15,2013-02-21 05:03:00,
2013-02-21 00:08:00,15.4,11.4,29.95,West,270,6.0,20.0,84,0.00,,,0.00,Wunderground v.1.15,2013-02-21 05:08:00,
2013-02-21 00:13:00,15.3,11.3,29.96,WNW,288,6.0,20.0,84,0.00,,,0.00,Wunderground v.1.15,2013-02-21 05:13:00,
2013-02-21 00:18:00,15.3,11.3,29.95,West,280,7.0,20.0,84,0.00,,,0.00,Wunderground v.1.15,2013-02-21 05:18:00,
2013-02-21 00:24:00,15.2,11.5,29.95,West,280,6.0,20.0,85,0.00,,,0.00,Wunderground v.1.15,2013-02-21 05:24:00,
2013-02-21 00:29:00,15.2,11.5,29.95,SW,236,5.0,20.0,85,0.00,,,0.00,Wunderground v.1.15,2013-02-21 05:29:00,
2013-02-21 00:34:00,15.1,11.4,29.95,WNW,288,4.0,20.0,85,0.00,,,0.00,Wunderground v.1.15,2013-02-21 05:34:00,
2013-02-21 00:39:00,15.1,11.4,29.96,NW,304,5.0,20.0,85,0.00,,,0.00,Wunderground v.1.15,2013-02-21 05:39:00,
2013-02-21 00:44:00,15.1,11.4,29.95,West,281,5.0,20.0,85,0.00,,,0.00,Wunderground v.1.15,2013-02-21 05:44:00,
2013-02-21 00:50:00,14.9,11.2,29.95,SSW,197,6.0,6.0,85,0.00,,,0.00,Wunderground v.1.15,2013-02-21 05:50:00,
2013-02-21 00:55:00,14.8,11.1,29.96,NW,311,7.0,20.0,85,0.00,,,0.00,Wunderground v.1.15,2013-02-21 05:55:00,
2013-02-21 01:01:00,14.8,11.1,29.95,WSW,239,7.0,8.0,85,0.00,,,0.00,Wunderground v.1.15,2013-02-21 06:01:00,
2013-02-21 01:06:00,14.7,11.0,29.95,WSW,246,6.0,20.0,85,0.00,,,0.00,Wunderground v.1.15,2013-02-21 06:06:00,
2013-02-21 01:12:00,14.7,11.0,29.95,WNW,293,5.0,20.0,85,0.00,,,0.00,Wunderground v.1.15,2013-02-21 06:12:00,
2013-02-21 01:17:00,14.6,10.9,29.95,West,281,5.0,20.0,85,0.00,,,0.00,Wunderground v.1.15,2013-02-21 06:17:00,
2013-02-21 01:22:00,14.5,10.8,29.95,NNW,335,4.0,20.0,85,0.00,,,0.00,Wunderground v.1.15,2013-02-21 06:22:00,
2013-02-21 01:27:00,14.5,10.8,29.94,SW,218,5.0,20.0,85,0.00,,,0.00,Wunderground v.1.15,2013-02-21 06:27:00,
2013-02-21 01:32:00,14.5,10.8,29.94,WSW,242,5.0,20.0,85,0.00,,,0.00,Wunderground v.1.15,2013-02-21 06:32:00,
2013-02-21 01:38:00,14.4,10.7,29.95,WNW,299,4.0,20.0,85,0.00,,,0.00,Wunderground v.1.15,2013-02-21 06:38:00,
2013-02-21 01:43:00,14.4,10.7,29.95,NNW,329,5.0,20.0,85,0.00,,,0.00,Wunderground v.1.15,2013-02-21 06:43:00,
2013-02-21 01:48:00,14.4,10.7,29.95,South,188,5.0,20.0,85,0.00,,,0.00,Wunderground v.1.15,2013-02-21 06:48:00,
2013-02-21 01:53:00,14.4,10.7,29.95,SW,231,5.0,20.0,85,0.00,,,0.00,Wunderground v.1.15,2013-02-21 06:53:00,
2013-02-21 01:58:00,14.4,10.7,29.95,West,276,4.0,20.0,85,0.00,,,0.00,Wunderground v.1.15,2013-02-21 06:58:00,
2013-02-21 02:04:00,14.4,10.7,29.95,NW,304,5.0,20.0,85,0.00,,,0.00,Wunderground v.1.15,2013-02-21 07:04:00,
2013-02-21 02:09:00,14.4,10.7,29.95,NW,304,6.0,20.0,85,0.00,,,0.00,Wunderground v.1.15,2013-02-21 07:09:00,
2013-02-21 02:14:00,14.4,10.7,29.95,WSW,257,5.0,20.0,85,0.00,,,0.00,Wunderground v.1.15,2013-02-21 07:14:00,
2013-02-21 02:19:00,14.4,10.7,29.95,West,259,5.0,20.0,85,0.00,,,0.00,Wunderground v.1.15,2013-02-21 07:19:00,
2013-02-21 02:24:00,14.4,11.0,29.95,WSW,237,6.0,20.0,86,0.00,,,0.00,Wunderground v.1.15,2013-02-21 07:24:00,
2013-02-21 02:30:00,14.4,11.0,29.95,NW,304,5.0,5.0,86,0.00,,,0.00,Wunderground v.1.15,2013-02-21 07:30:00,
2013-02-21 02:35:00,14.4,11.0,29.95,WSW,256,5.0,20.0,86,0.00,,,0.00,Wunderground v.1.15,2013-02-21 07:35:00,
2013-02-21 02:40:00,14.4,11.0,29.96,South,179,4.0,4.0,86,0.00,,,0.00,Wunderground v.1.15,2013-02-21 07:40:00,
2013-02-21 02:45:00,14.4,10.7,29.95,WSW,252,5.0,20.0,85,0.00,,,0.00,Wunderground v.1.15,2013-02-21 07:45:00,
2013-02-21 02:50:00,14.4,11.0,29.95,SSW,205,5.0,5.0,86,0.00,,,0.00,Wunderground v.1.15,2013-02-21 07:50:00,
2013-02-21 02:56:00,14.3,10.9,29.96,WNW,290,4.0,20.0,86,0.00,,,0.00,Wunderground v.1.15,2013-02-21 07:56:00,
2013-02-21 03:01:00,14.2,10.8,29.95,SW,226,4.0,20.0,86,0.00,,,0.00,Wunderground v.1.15,2013-02-21 08:01:00,
2013-02-21 03:06:00,14.2,10.8,29.95,SSW,207,5.0,20.0,86,0.00,,,0.00,Wunderground v.1.15,2013-02-21 08:06:00,
2013-02-21 03:11:00,14.2,10.8,29.95,WNW,297,5.0,20.0,86,0.00,,,0.00,Wunderground v.1.15,2013-02-21 08:11:00,
2013-02-21 03:16:00,14.1,10.7,29.95,West,277,6.0,20.0,86,0.00,,,0.00,Wunderground v.1.15,2013-02-21 08:16:00,
2013-02-21 03:22:00,14.0,10.6,29.95,WNW,291,6.0,20.0,86,0.00,,,0.00,Wunderground v.1.15,2013-02-21 08:22:00,
2013-02-21 03:27:00,14.0,10.6,29.95,NW,304,6.0,20.0,86,0.00,,,0.00,Wunderground v.1.15,2013-02-21 08:27:00,
2013-02-21 03:32:00,14.0,10.6,29.95,South,184,6.0,20.0,86,0.00,,,0.00,Wunderground v.1.15,2013-02-21 08:32:00,
2013-02-21 03:37:00,14.0,10.6,29.95,SSW,211,5.0,20.0,86,0.00,,,0.00,Wunderground v.1.15,2013-02-21 08:37:00,
2013-02-21 03:42:00,14.0,10.6,29.95,NW,323,5.0,20.0,86,0.00,,,0.00,Wunderground v.1.15,2013-02-21 08:42:00,
2013-02-21 03:47:00,14.0,10.6,29.95,West,276,5.0,20.0,86,0.00,,,0.00,Wunderground v.1.15,2013-02-21 08:47:00,
2013-02-21 03:52:00,14.0,10.6,29.95,WNW,302,6.0,20.0,86,0.00,,,0.00,Wunderground v.1.15,2013-02-21 08:52:00,
2013-02-21 03:57:00,14.1,10.7,29.95,NW,319,6.0,20.0,86,0.00,,,0.00,Wunderground v.1.15,2013-02-21 08:57:00,
2013-02-21 04:02:00,14.0,10.6,29.95,WNW,283,7.0,20.0,86,0.00,,,0.00,Wunderground v.1.15,2013-02-21 09:02:00,
2013-02-21 04:07:00,14.0,10.6,29.95,WSW,243,6.0,20.0,86,0.00,,,0.00,Wunderground v.1.15,2013-02-21 09:07:00,
2013-02-21 04:12:00,14.0,10.6,29.95,SSW,211,6.0,20.0,86,0.00,,,0.00,Wunderground v.1.15,2013-02-21 09:12:00,
2013-02-21 04:18:00,14.1,10.7,29.95,WSW,257,6.0,20.0,86,0.00,,,0.00,Wunderground v.1.15,2013-02-21 09:18:00,
2013-02-21 04:23:00,14.1,10.7,29.96,West,266,6.0,20.0,86,0.00,,,0.00,Wunderground v.1.15,2013-02-21 09:23:00,
2013-02-21 04:28:00,14.1,10.7,29.96,WNW,282,6.0,20.0,86,0.00,,,0.00,Wunderground v.1.15,2013-02-21 09:28:00,
2013-02-21 04:33:00,14.1,10.7,29.96,West,270,6.0,20.0,86,0.00,,,0.00,Wunderground v.1.15,2013-02-21 09:33:00,
2013-02-21 04:38:00,14.2,10.8,29.96,WNW,302,6.0,20.0,86,0.00,,,0.00,Wunderground v.1.15,2013-02-21 09:38:00,
2013-02-21 04:44:00,14.2,10.8,29.96,WSW,238,6.0,20.0,86,0.00,,,0.00,Wunderground v.1.15,2013-02-21 09:44:00,
2013-02-21 04:49:00,14.2,10.8,29.96,SSW,203,7.0,20.0,86,0.00,,,0.00,Wunderground v.1.15,2013-02-21 09:49:00,
2013-02-21 04:54:00,14.1,10.9,29.96,WNW,288,7.0,20.0,87,0.00,,,0.00,Wunderground v.1.15,2013-02-21 09:54:00,
2013-02-21 04:59:00,14.0,10.8,29.96,WNW,293,6.0,20.0,87,0.00,,,0.00,Wunderground v.1.15,2013-02-21 09:59:00,
2013-02-21 05:04:00,14.0,10.8,29.97,WNW,282,6.0,20.0,87,0.00,,,0.00,Wunderground v.1.15,2013-02-21 10:04:00,
2013-02-21 05:10:00,14.1,10.9,29.97,WNW,302,6.0,6.0,87,0.00,,,0.00,Wunderground v.1.15,2013-02-21 10:10:00,
2013-02-21 05:15:00,14.1,10.9,29.98,SW,220,5.0,20.0,87,0.00,,,0.00,Wunderground v.1.15,2013-02-21 10:15:00,
2013-02-21 05:20:00,14.1,10.9,29.98,West,281,5.0,5.0,87,0.00,,,0.00,Wunderground v.1.15,2013-02-21 10:20:00,
2013-02-21 05:25:00,14.1,10.9,29.98,NW,314,5.0,20.0,87,0.00,,,0.00,Wunderground v.1.15,2013-02-21 10:25:00,
2013-02-21 05:30:00,14.1,10.9,29.99,WNW,293,4.0,20.0,87,0.00,,,0.00,Wunderground v.1.15,2013-02-21 10:30:00,
2013-02-21 05:36:00,14.1,10.9,29.99,NW,309,4.0,20.0,87,0.00,,,0.00,Wunderground v.1.15,2013-02-21 10:36:00,
2013-02-21 05:41:00,14.0,10.8,29.98,WSW,245,5.0,20.0,87,0.00,,,0.00,Wunderground v.1.15,2013-02-21 10:41:00,
2013-02-21 05:46:00,14.0,10.8,29.98,WNW,293,4.0,20.0,87,0.00,,,0.00,Wunderground v.1.15,2013-02-21 10:46:00,
2013-02-21 05:51:00,14.0,10.8,29.99,WNW,283,5.0,20.0,87,0.00,,,0.00,Wunderground v.1.15,2013-02-21 10:51:00,
2013-02-21 05:56:00,14.0,10.8,29.98,NW,309,6.0,20.0,87,0.00,,,0.00,Wunderground v.1.15,2013-02-21 10:56:00,
2013-02-21 06:02:00,14.0,10.8,29.99,West,271,5.0,18.0,87,0.00,,,0.00,Wunderground v.1.15,2013-02-21 11:02:00,
2013-02-21 06:07:00,14.0,10.8,29.99,SSW,211,4.0,18.0,87,0.00,,,0.00,Wunderground v.1.15,2013-02-21 11:07:00,
2013-02-21 06:12:00,14.1,10.9,29.99,WSW,238,5.0,18.0,87,0.00,,,0.00,Wunderground v.1.15,2013-02-21 11:12:00,
2013-02-21 06:17:00,14.0,10.8,29.99,North,349,5.0,18.0,87,0.00,,,0.00,Wunderground v.1.15,2013-02-21 11:17:00,
2013-02-21 06:22:00,14.0,10.8,29.99,WNW,285,5.0,18.0,87,0.00,,,0.00,Wunderground v.1.15,2013-02-21 11:22:00,
2013-02-21 06:28:00,14.0,10.8,30.00,West,281,6.0,18.0,87,0.00,,,0.00,Wunderground v.1.15,2013-02-21 11:28:00,
2013-02-21 06:33:00,14.0,10.8,30.00,WSW,242,6.0,18.0,87,0.00,,,0.00,Wunderground v.1.15,2013-02-21 11:33:00,
2013-02-21 06:38:00,14.0,10.8,30.00,NW,304,6.0,18.0,87,0.00,,,0.00,Wunderground v.1.15,2013-02-21 11:38:00,
2013-02-21 06:43:00,14.0,10.8,30.00,WSW,253,6.0,18.0,87,0.00,,,0.00,Wunderground v.1.15,2013-02-21 11:43:00,
2013-02-21 06:48:00,14.0,10.8,30.00,WNW,287,6.0,18.0,87,0.00,,,0.00,Wunderground v.1.15,2013-02-21 11:48:00,
2013-02-21 06:54:00,14.0,10.8,30.00,NW,309,5.0,18.0,87,0.00,,,0.00,Wunderground v.1.15,2013-02-21 11:54:00,
2013-02-21 06:59:00,13.9,10.7,30.01,WSW,248,4.0,18.0,87,0.00,,,0.00,Wunderground v.1.15,2013-02-21 11:59:00,
2013-02-21 07:04:00,13.9,10.5,30.01,WNW,287,5.0,18.0,86,0.00,,,0.00,Wunderground v.1.15,2013-02-21 12:04:00,
2013-02-21 07:09:00,13.9,10.5,30.00,WNW,293,5.0,18.0,86,0.00,,,0.00,Wunderground v.1.15,2013-02-21 12:09:00,
2013-02-21 07:14:00,13.9,10.5,30.01,WNW,288,5.0,18.0,86,0.00,,,0.00,Wunderground v.1.15,2013-02-21 12:14:00,
2013-02-21 07:20:00,13.8,10.1,30.01,WNW,288,5.0,15.0,85,0.00,,,0.00,Wunderground v.1.15,2013-02-21 12:20:00,
2013-02-21 07:25:00,13.9,10.0,30.01,West,276,7.0,15.0,84,0.00,,,0.00,Wunderground v.1.15,2013-02-21 12:25:00,
2013-02-21 07:30:00,13.9,9.7,30.02,SSW,208,8.0,15.0,83,0.00,,,0.00,Wunderground v.1.15,2013-02-21 12:30:00,
2013-02-21 07:35:00,13.9,9.7,30.02,WSW,249,8.0,15.0,83,0.00,,,0.00,Wunderground v.1.15,2013-02-21 12:35:00,
2013-02-21 07:40:00,14.0,9.8,30.03,WNW,293,7.0,15.0,83,0.00,,,0.00,Wunderground v.1.15,2013-02-21 12:40:00,
2013-02-21 07:45:00,13.9,9.1,30.03,WNW,300,7.0,15.0,81,0.00,,,0.00,Wunderground v.1.15,2013-02-21 12:45:00,
2013-02-21 07:50:00,13.9,8.9,30.03,NNW,333,8.0,8.0,80,0.00,,,0.00,Wunderground v.1.15,2013-02-21 12:50:00,
2013-02-21 07:55:00,13.9,8.9,30.03,West,276,9.0,15.0,80,0.00,,,0.00,Wunderground v.1.15,2013-02-21 12:55:00,
2013-02-21 08:00:00,14.0,9.0,30.03,West,263,7.0,7.0,80,0.00,,,0.00,Wunderground v.1.15,2013-02-21 13:00:00,
2013-02-21 08:05:00,14.0,9.0,30.03,WNW,295,6.0,15.0,80,0.00,,,0.00,Wunderground v.1.15,2013-02-21 13:05:00,
2013-02-21 08:10:00,13.8,9.0,30.03,WNW,287,6.0,6.0,81,0.00,,,0.00,Wunderground v.1.15,2013-02-21 13:10:00,
2013-02-21 08:16:00,13.6,8.9,30.04,NNW,334,7.0,15.0,81,0.00,,,0.00,Wunderground v.1.15,2013-02-21 13:16:00,
2013-02-21 08:21:00,13.7,9.0,30.04,WNW,282,7.0,15.0,81,0.00,,,0.00,Wunderground v.1.15,2013-02-21 13:21:00,
2013-02-21 08:26:00,13.6,8.9,30.04,WNW,296,8.0,15.0,81,0.00,,,0.00,Wunderground v.1.15,2013-02-21 13:26:00,
2013-02-21 08:31:00,13.6,8.6,30.05,WNW,283,7.0,15.0,80,0.00,,,0.00,Wunderground v.1.15,2013-02-21 13:31:00,
2013-02-21 08:36:00,13.4,8.1,30.05,WNW,295,8.0,15.0,79,0.00,,,0.00,Wunderground v.1.15,2013-02-21 13:36:00,
2013-02-21 08:42:00,13.4,8.1,30.05,WNW,287,8.0,15.0,79,0.00,,,0.00,Wunderground v.1.15,2013-02-21 13:42:00,
2013-02-21 08:47:00,13.4,8.4,30.05,West,269,8.0,15.0,80,0.00,,,0.00,Wunderground v.1.15,2013-02-21 13:47:00,
2013-02-21 08:52:00,13.5,8.5,30.05,NW,314,6.0,15.0,80,0.00,,,0.00,Wunderground v.1.15,2013-02-21 13:52:00,
2013-02-21 08:57:00,13.5,8.8,30.05,WNW,288,5.0,15.0,81,0.00,,,0.00,Wunderground v.1.15,2013-02-21 13:57:00,
2013-02-21 09:02:00,13.5,8.2,30.05,West,259,5.0,15.0,79,0.00,,,0.00,Wunderground v.1.15,2013-02-21 14:02:00,
2013-02-21 09:07:00,13.0,7.4,30.06,WNW,297,6.0,15.0,78,0.00,,,0.00,Wunderground v.1.15,2013-02-21 14:07:00,
2013-02-21 09:12:00,12.9,7.3,30.07,West,281,7.0,15.0,78,0.00,,,0.00,Wunderground v.1.15,2013-02-21 14:12:00,
2013-02-21 09:17:00,12.9,7.0,30.07,NNE,12,7.0,15.0,77,0.00,,,0.00,Wunderground v.1.15,2013-02-21 14:17:00,
2013-02-21 09:22:00,12.8,6.9,30.07,NW,326,8.0,15.0,77,0.00,,,0.00,Wunderground v.1.15,2013-02-21 14:22:00,
2013-02-21 09:27:00,12.8,6.7,30.07,WNW,293,8.0,15.0,76,0.00,,,0.00,Wunderground v.1.15,2013-02-21 14:27:00,
2013-02-21 09:32:00,12.6,6.2,30.08,NW,309,8.0,15.0,75,0.00,,,0.00,Wunderground v.1.15,2013-02-21 14:32:00,
2013-02-21 09:37:00,12.7,6.9,30.08,NW,325,8.0,15.0,77,0.00,,,0.00,Wunderground v.1.15,2013-02-21 14:37:00,
2013-02-21 09:43:00,12.8,6.9,30.07,NW,309,8.0,15.0,77,0.00,,,0.00,Wunderground v.1.15,2013-02-21 14:43:00,
2013-02-21 09:48:00,12.8,6.7,30.07,WNW,288,9.0,16.0,76,0.00,,,0.00,Wunderground v.1.15,2013-02-21 14:48:00,
2013-02-21 09:53:00,12.9,7.0,30.07,NNW,331,9.0,15.0,77,0.00,,,0.00,Wunderground v.1.15,2013-02-21 14:53:00,
2013-02-21 09:58:00,13.2,7.0,30.07,NE,39,9.0,15.0,76,0.00,,,0.00,Wunderground v.1.15,2013-02-21 14:58:00,
2013-02-21 10:03:00,13.2,7.3,30.07,NW,307,9.0,15.0,77,0.00,,,0.00,Wunderground v.1.15,2013-02-21 15:03:00,
2013-02-21 10:09:00,13.2,7.3,30.07,WSW,241,8.0,15.0,77,0.00,,,0.00,Wunderground v.1.15,2013-02-21 15:09:00,
2013-02-21 10:14:00,12.8,6.9,30.08,West,269,9.0,15.0,77,0.00,,,0.00,Wunderground v.1.15,2013-02-21 15:14:00,
2013-02-21 10:19:00,13.1,7.5,30.08,WNW,284,9.0,15.0,78,0.00,,,0.00,Wunderground v.1.15,2013-02-21 15:19:00,
2013-02-21 10:24:00,13.0,7.1,30.09,WSW,258,8.0,15.0,77,0.00,,,0.00,Wunderground v.1.15,2013-02-21 15:24:00,
2013-02-21 10:29:00,13.1,7.2,30.10,WNW,287,8.0,15.0,77,0.00,,,0.00,Wunderground v.1.15,2013-02-21 15:29:00,
2013-02-21 10:35:00,12.9,7.0,30.10,West,270,8.0,15.0,77,0.00,,,0.00,Wunderground v.1.15,2013-02-21 15:35:00,
2013-02-21 10:40:00,13.2,7.3,30.10,West,278,8.0,15.0,77,0.00,,,0.00,Wunderground v.1.15,2013-02-21 15:40:00,
2013-02-21 10:45:00,13.1,7.2,30.10,WSW,239,8.0,15.0,77,0.00,,,0.00,Wunderground v.1.15,2013-02-21 15:45:00,
2013-02-21 10:50:00,13.0,7.1,30.11,NNW,340,8.0,8.0,77,0.00,,,0.00,Wunderground v.1.15,2013-02-21 15:50:00,
2013-02-21 10:55:00,13.3,7.7,30.11,WNW,283,7.0,15.0,78,0.00,,,0.00,Wunderground v.1.15,2013-02-21 15:55:00,
2013-02-21 11:01:00,13.2,7.3,30.11,SE,143,6.0,15.0,77,0.00,,,0.00,Wunderground v.1.15,2013-02-21 16:01:00,
2013-02-21 11:06:00,13.2,7.6,30.12,West,271,6.0,15.0,78,0.00,,,0.00,Wunderground v.1.15,2013-02-21 16:06:00,
2013-02-21 11:11:00,13.1,7.2,30.12,WNW,299,7.0,15.0,77,0.00,,,0.00,Wunderground v.1.15,2013-02-21 16:11:00,
2013-02-21 11:16:00,12.8,6.7,30.12,West,267,8.0,15.0,76,0.00,,,0.00,Wunderground v.1.15,2013-02-21 16:16:00,
2013-02-21 11:21:00,12.9,7.0,30.12,North,349,7.0,15.0,77,0.00,,,0.00,Wunderground v.1.15,2013-02-21 16:21:00,
2013-02-21 11:27:00,12.9,7.0,30.12,North,350,6.0,15.0,77,0.00,,,0.00,Wunderground v.1.15,2013-02-21 16:27:00,
2013-02-21 11:32:00,13.0,7.4,30.12,NW,316,7.0,15.0,78,0.00,,,0.00,Wunderground v.1.15,2013-02-21 16:32:00,
2013-02-21 11:37:00,13.0,7.1,30.12,NNW,336,7.0,15.0,77,0.00,,,0.00,Wunderground v.1.15,2013-02-21 16:37:00,
2013-02-21 11:42:00,13.3,7.7,30.12,WSW,250,8.0,15.0,78,0.00,,,0.00,Wunderground v.1.15,2013-02-21 16:42:00,
2013-02-21 11:47:00,13.2,7.0,30.12,SW,214,8.0,15.0,76,0.00,,,0.00,Wunderground v.1.15,2013-02-21 16:47:00,
2013-02-21 11:53:00,13.0,7.1,30.12,NW,308,8.0,15.0,77,0.00,,,0.00,Wunderground v.1.15,2013-02-21 16:53:00,
2013-02-21 11:58:00,13.2,7.6,30.12,NW,326,7.0,15.0,78,0.00,,,0.00,Wunderground v.1.15,2013-02-21 16:58:00,
2013-02-21 12:03:00,13.9,7.7,30.12,NW,312,6.0,15.0,76,0.00,,,0.00,Wunderground v.1.15,2013-02-21 17:03:00,
2013-02-21 12:08:00,14.4,7.9,30.12,WSW,238,6.0,15.0,75,0.00,,,0.00,Wunderground v.1.15,2013-02-21 17:08:00,
2013-02-21 12:13:00,14.8,8.0,30.12,WNW,295,7.0,15.0,74,0.00,,,0.00,Wunderground v.1.15,2013-02-21 17:13:00,
2013-02-21 12:19:00,14.9,8.1,30.12,NNW,336,7.0,15.0,74,0.00,,,0.00,Wunderground v.1.15,2013-02-21 17:19:00,
2013-02-21 12:24:00,14.5,7.7,30.13,NW,310,7.0,15.0,74,0.00,,,0.00,Wunderground v.1.15,2013-02-21 17:24:00,
2013-02-21 12:29:00,14.1,7.6,30.13,NNW,330,8.0,15.0,75,0.00,,,0.00,Wunderground v.1.15,2013-02-21 17:29:00,
2013-02-21 12:34:00,13.9,7.4,30.13,NW,308,8.0,15.0,75,0.00,,,0.00,Wunderground v.1.15,2013-02-21 17:34:00,
2013-02-21 12:39:00,13.9,7.4,30.12,WNW,290,7.0,15.0,75,0.00,,,0.00,Wunderground v.1.15,2013-02-21 17:39:00,
2013-02-21 12:45:00,14.0,7.8,30.12,WNW,283,8.0,15.0,76,0.00,,,0.00,Wunderground v.1.15,2013-02-21 17:45:00,
2013-02-21 12:50:00,14.2,8.0,30.12,WNW,285,7.0,15.0,76,0.00,,,0.00,Wunderground v.1.15,2013-02-21 17:50:00,
2013-02-21 12:55:00,14.1,7.6,30.12,WNW,291,7.0,15.0,75,0.00,,,0.00,Wunderground v.1.15,2013-02-21 17:55:00,
2013-02-21 13:00:00,14.1,7.9,30.12,WNW,287,7.0,7.0,76,0.00,,,0.00,Wunderground v.1.15,2013-02-21 18:00:00,
2013-02-21 13:05:00,14.3,8.1,30.12,WNW,291,6.0,15.0,76,0.00,,,0.00,Wunderground v.1.15,2013-02-21 18:05:00,
2013-02-21 13:11:00,14.4,8.2,30.13,North,349,7.0,15.0,76,0.00,,,0.00,Wunderground v.1.15,2013-02-21 18:11:00,
2013-02-21 13:16:00,14.3,8.1,30.12,WNW,291,7.0,15.0,76,0.00,,,0.00,Wunderground v.1.15,2013-02-21 18:16:00,
2013-02-21 13:21:00,14.5,8.3,30.13,West,280,6.0,15.0,76,0.00,,,0.00,Wunderground v.1.15,2013-02-21 18:21:00,
2013-02-21 13:26:00,14.5,8.6,30.13,WNW,298,6.0,15.0,77,0.00,,,0.00,Wunderground v.1.15,2013-02-21 18:26:00,
2013-02-21 13:31:00,14.4,8.5,30.13,WNW,288,7.0,15.0,77,0.00,,,0.00,Wunderground v.1.15,2013-02-21 18:31:00,
2013-02-21 13:37:00,14.2,8.0,30.13,WNW,294,7.0,15.0,76,0.00,,,0.00,Wunderground v.1.15,2013-02-21 18:37:00,
2013-02-21 13:42:00,14.1,7.9,30.13,NNW,336,7.0,15.0,76,0.00,,,0.00,Wunderground v.1.15,2013-02-21 18:42:00,
2013-02-21 13:47:00,14.1,8.2,30.14,West,267,7.0,15.0,77,0.00,,,0.00,Wunderground v.1.15,2013-02-21 18:47:00,
2013-02-21 13:52:00,14.0,8.1,30.14,West,269,6.0,15.0,77,0.00,,,0.00,Wunderground v.1.15,2013-02-21 18:52:00,
2013-02-21 13:57:00,13.9,8.0,30.15,WNW,284,6.0,15.0,77,0.00,,,0.00,Wunderground v.1.15,2013-02-21 18:57:00,
2013-02-21 14:02:00,13.9,8.3,30.15,West,266,6.0,15.0,78,0.00,,,0.00,Wunderground v.1.15,2013-02-21 19:02:00,
2013-02-21 14:07:00,14.2,8.6,30.15,WNW,291,4.0,15.0,78,0.00,,,0.00,Wunderground v.1.15,2013-02-21 19:07:00,
2013-02-21 14:12:00,14.1,8.2,30.15,WNW,299,5.0,15.0,77,0.00,,,0.00,Wunderground v.1.15,2013-02-21 19:12:00,
2013-02-21 14:18:00,13.9,8.3,30.16,WNW,285,5.0,15.0,78,0.00,,,0.00,Wunderground v.1.15,2013-02-21 19:18:00,
2013-02-21 14:23:00,14.0,8.4,30.16,WNW,283,5.0,15.0,78,0.00,,,0.00,Wunderground v.1.15,2013-02-21 19:23:00,
2013-02-21 14:28:00,14.0,8.4,30.17,NW,317,5.0,15.0,78,0.00,,,0.00,Wunderground v.1.15,2013-02-21 19:28:00,
2013-02-21 14:33:00,13.9,8.3,30.17,NW,319,5.0,15.0,78,0.00,,,0.00,Wunderground v.1.15,2013-02-21 19:33:00,
2013-02-21 14:38:00,13.9,8.3,30.17,West,270,6.0,15.0,78,0.00,,,0.00,Wunderground v.1.15,2013-02-21 19:38:00,
2013-02-21 14:43:00,13.7,8.1,30.17,WNW,298,7.0,15.0,78,0.00,,,0.00,Wunderground v.1.15,2013-02-21 19:43:00,
2013-02-21 14:48:00,13.8,8.5,30.17,West,276,7.0,15.0,79,0.00,,,0.00,Wunderground v.1.15,2013-02-21 19:48:00,
2013-02-21 14:53:00,13.8,8.2,30.17,NW,305,6.0,15.0,78,0.00,,,0.00,Wunderground v.1.15,2013-02-21 19:53:00,
2013-02-21 14:59:00,13.9,8.6,30.17,WNW,300,6.0,15.0,79,0.00,,,0.00,Wunderground v.1.15,2013-02-21 19:59:00,
2013-02-21 15:04:00,13.9,8.6,30.17,West,271,6.0,15.0,79,0.00,,,0.00,Wunderground v.1.15,2013-02-21 20:04:00,
2013-02-21 15:09:00,13.9,8.6,30.18,WNW,288,6.0,15.0,79,0.00,,,0.00,Wunderground v.1.15,2013-02-21 20:09:00,
2013-02-21 15:14:00,13.7,8.4,30.18,West,267,7.0,15.0,79,0.00,,,0.00,Wunderground v.1.15,2013-02-21 20:14:00,
2013-02-21 15:19:00,13.7,8.4,30.18,WNW,294,7.0,19.0,79,0.00,,,0.00,Wunderground v.1.15,2013-02-21 20:19:00,
2013-02-21 15:24:00,13.9,8.6,30.19,West,276,6.0,19.0,79,0.00,,,0.00,Wunderground v.1.15,2013-02-21 20:24:00,
2013-02-21 15:39:00,13.7,8.7,30.19,West,279,7.0,19.0,80,0.00,,,0.00,Wunderground v.1.15,2013-02-21 20:39:00,
2013-02-21 15:44:00,13.5,8.5,30.19,WNW,302,7.0,19.0,80,0.00,,,0.00,Wunderground v.1.15,2013-02-21 20:44:00,
2013-02-21 15:50:00,13.3,8.6,30.20,WNW,291,7.0,19.0,81,0.00,,,0.00,Wunderground v.1.15,2013-02-21 20:50:00,
2013-02-21 15:55:00,13.3,8.6,30.21,NNW,344,7.0,19.0,81,0.00,,,0.00,Wunderground v.1.15,2013-02-21 20:55:00,
2013-02-21 16:00:00,13.3,8.8,30.21,West,276,6.0,19.0,82,0.00,,,0.00,Wunderground v.1.15,2013-02-21 21:00:00,
2013-02-21 16:05:00,13.2,8.7,30.21,West,271,7.0,19.0,82,0.00,,,0.00,Wunderground v.1.15,2013-02-21 21:05:00,
2013-02-21 16:10:00,13.2,9.0,30.22,West,280,7.0,19.0,83,0.00,,,0.00,Wunderground v.1.15,2013-02-21 21:10:00,
2013-02-21 16:15:00,13.2,9.0,30.21,WNW,295,6.0,19.0,83,0.00,,,0.00,Wunderground v.1.15,2013-02-21 21:15:00,
2013-02-21 16:20:00,13.0,8.8,30.22,NW,307,6.0,6.0,83,0.00,,,0.00,Wunderground v.1.15,2013-02-21 21:20:00,
2013-02-21 16:25:00,13.0,8.8,30.22,WNW,290,6.0,19.0,83,0.00,,,0.00,Wunderground v.1.15,2013-02-21 21:25:00,
2013-02-21 16:30:00,13.0,8.8,30.23,NNE,23,6.0,6.0,83,0.00,,,0.00,Wunderground v.1.15,2013-02-21 21:30:00,
2013-02-21 16:35:00,13.1,8.9,30.24,NNW,341,5.0,19.0,83,0.00,,,0.00,Wunderground v.1.15,2013-02-21 21:35:00,
2013-02-21 16:40:00,13.1,8.9,30.24,WNW,300,3.0,19.0,83,0.00,,,0.00,Wunderground v.1.15,2013-02-21 21:40:00,
2013-02-21 16:45:00,13.1,8.9,30.24,West,264,3.0,19.0,83,0.00,,,0.00,Wunderground v.1.15,2013-02-21 21:45:00,
2013-02-21 16:51:00,12.9,8.7,30.25,WNW,287,4.0,19.0,83,0.00,,,0.00,Wunderground v.1.15,2013-02-21 21:51:00,
2013-02-21 16:56:00,12.8,8.9,30.25,WNW,283,4.0,19.0,84,0.00,,,0.00,Wunderground v.1.15,2013-02-21 21:56:00,
2013-02-21 17:01:00,12.8,8.9,30.25,SSW,198,4.0,19.0,84,0.00,,,0.00,Wunderground v.1.15,2013-02-21 22:01:00,
2013-02-21 17:06:00,12.8,8.9,30.25,West,259,3.0,19.0,84,0.00,,,0.00,Wunderground v.1.15,2013-02-21 22:06:00,
2013-02-21 17:11:00,12.7,8.8,30.26,West,276,3.0,19.0,84,0.00,,,0.00,Wunderground v.1.15,2013-02-21 22:11:00,
2013-02-21 17:17:00,12.7,8.8,30.27,WNW,288,3.0,19.0,84,0.00,,,0.00,Wunderground v.1.15,2013-02-21 22:17:00,
2013-02-21 17:22:00,12.6,8.7,30.27,NW,316,3.0,19.0,84,0.00,,,0.00,Wunderground v.1.15,2013-02-21 22:22:00,
2013-02-21 17:27:00,12.6,8.9,30.27,WNW,288,4.0,19.0,85,0.00,,,0.00,Wunderground v.1.15,2013-02-21 22:27:00,
2013-02-21 17:32:00,12.4,8.7,30.27,WSW,242,3.0,19.0,85,0.00,,,0.00,Wunderground v.1.15,2013-02-21 22:32:00,
2013-02-21 17:37:00,12.4,8.7,30.27,WNW,285,2.0,19.0,85,0.00,,,0.00,Wunderground v.1.15,2013-02-21 22:37:00,
2013-02-21 17:43:00,12.2,8.6,30.28,WSW,238,3.0,19.0,85,0.00,,,0.00,Wunderground v.1.15,2013-02-21 22:43:00,
2013-02-21 17:48:00,12.1,8.5,30.28,West,278,3.0,19.0,85,0.00,,,0.00,Wunderground v.1.15,2013-02-21 22:48:00,
2013-02-21 17:53:00,12.1,8.7,30.29,SSW,209,3.0,19.0,86,0.00,,,0.00,Wunderground v.1.15,2013-02-21 22:53:00,
2013-02-21 17:58:00,12.1,8.7,30.29,NNE,12,3.0,19.0,86,0.00,,,0.00,Wunderground v.1.15,2013-02-21 22:58:00,
2013-02-21 18:03:00,12.1,8.7,30.28,ESE,112,2.0,19.0,86,0.00,,,0.00,Wunderground v.1.15,2013-02-21 23:03:00,
2013-02-21 18:09:00,12.0,8.6,30.28,West,260,1.0,19.0,86,0.00,,,0.00,Wunderground v.1.15,2013-02-21 23:09:00,
2013-02-21 18:14:00,11.9,8.5,30.29,SW,214,2.0,19.0,86,0.00,,,0.00,Wunderground v.1.15,2013-02-21 23:14:00,
2013-02-21 18:19:00,11.9,8.5,30.30,South,170,2.0,19.0,86,0.00,,,0.00,Wunderground v.1.15,2013-02-21 23:19:00,
2013-02-21 18:24:00,11.9,8.5,30.30,SE,146,3.0,19.0,86,0.00,,,0.00,Wunderground v.1.15,2013-02-21 23:24:00,
2013-02-21 18:29:00,11.9,8.8,30.30,SW,235,3.0,19.0,87,0.00,,,0.00,Wunderground v.1.15,2013-02-21 23:29:00,
2013-02-21 18:35:00,11.8,8.7,30.30,SW,222,3.0,19.0,87,0.00,,,0.00,Wunderground v.1.15,2013-02-21 23:35:00,
2013-02-21 18:40:00,11.7,8.6,30.31,West,278,2.0,19.0,87,0.00,,,0.00,Wunderground v.1.15,2013-02-21 23:40:00,
2013-02-21 18:45:00,11.7,8.6,30.30,South,187,2.0,19.0,87,0.00,,,0.00,Wunderground v.1.15,2013-02-21 23:45:00,
2013-02-21 18:50:00,11.6,8.5,30.31,West,273,4.0,4.0,87,0.00,,,0.00,Wunderground v.1.15,2013-02-21 23:50:00,
2013-02-21 18:55:00,11.7,8.6,30.32,West,279,3.0,19.0,87,0.00,,,0.00,Wunderground v.1.15,2013-02-21 23:55:00,
2013-02-21 19:00:00,11.7,8.6,30.31,WNW,301,2.0,19.0,87,0.00,,,0.00,Wunderground v.1.15,2013-02-22 00:00:00,
2013-02-21 19:06:00,11.8,8.7,30.31,NW,309,2.0,19.0,87,0.00,,,0.00,Wunderground v.1.15,2013-02-22 00:06:00,
2013-02-21 19:11:00,11.7,8.6,30.32,SSW,205,2.0,19.0,87,0.00,,,0.00,Wunderground v.1.15,2013-02-22 00:11:00,
2013-02-21 19:16:00,11.7,8.6,30.33,WNW,302,2.0,19.0,87,0.00,,,0.00,Wunderground v.1.15,2013-02-22 00:16:00,
2013-02-21 19:21:00,11.7,8.6,30.33,SW,220,3.0,19.0,87,0.00,,,0.00,Wunderground v.1.15,2013-02-22 00:21:00,
2013-02-21 19:27:00,11.7,8.6,30.33,NW,326,3.0,19.0,87,0.00,,,0.00,Wunderground v.1.15,2013-02-22 00:27:00,
2013-02-21 19:32:00,11.6,8.5,30.34,SSW,204,3.0,19.0,87,0.00,,,0.00,Wunderground v.1.15,2013-02-22 00:32:00,
2013-02-21 19:37:00,11.7,8.8,30.34,NW,304,2.0,19.0,88,0.00,,,0.00,Wunderground v.1.15,2013-02-22 00:37:00,
2013-02-21 19:42:00,11.7,8.8,30.34,NNW,347,1.0,19.0,88,0.00,,,0.00,Wunderground v.1.15,2013-02-22 00:42:00,
2013-02-21 19:47:00,11.8,8.9,30.36,West,278,2.0,19.0,88,0.00,,,0.00,Wunderground v.1.15,2013-02-22 00:47:00,
2013-02-21 19:53:00,11.8,8.9,30.37,West,271,2.0,19.0,88,0.00,,,0.00,Wunderground v.1.15,2013-02-22 00:53:00,
2013-02-21 19:58:00,11.9,9.0,30.37,West,269,2.0,19.0,88,0.00,,,0.00,Wunderground v.1.15,2013-02-22 00:58:00,
2013-02-21 20:03:00,11.9,9.0,30.37,NW,308,3.0,19.0,88,0.00,,,0.00,Wunderground v.1.15,2013-02-22 01:03:00,
2013-02-21 20:08:00,11.9,9.0,30.38,West,262,3.0,19.0,88,0.00,,,0.00,Wunderground v.1.15,2013-02-22 01:08:00,
2013-02-21 20:13:00,11.9,9.0,30.38,WSW,248,3.0,19.0,88,0.00,,,0.00,Wunderground v.1.15,2013-02-22 01:13:00,
2013-02-21 20:19:00,11.9,9.0,30.39,WSW,239,3.0,19.0,88,0.00,,,0.00,Wunderground v.1.15,2013-02-22 01:19:00,
2013-02-21 20:24:00,11.9,9.0,30.39,West,269,2.0,19.0,88,0.00,,,0.00,Wunderground v.1.15,2013-02-22 01:24:00,
2013-02-21 20:30:00,11.9,9.0,30.39,West,268,2.0,2.0,88,0.00,,,0.00,Wunderground v.1.15,2013-02-22 01:30:00,
2013-02-21 20:35:00,11.9,9.3,30.40,West,276,2.0,2.0,89,0.00,,,0.00,Wunderground v.1.15,2013-02-22 01:35:00,
2013-02-21 20:41:00,11.9,9.3,30.40,WNW,285,2.0,2.0,89,0.00,,,0.00,Wunderground v.1.15,2013-02-22 01:41:00,
2013-02-21 20:47:00,11.9,9.3,30.41,West,276,2.0,5.0,89,0.00,,,0.00,Wunderground v.1.15,2013-02-22 01:47:00,
2013-02-21 20:52:00,11.9,9.3,30.42,West,269,3.0,4.0,89,0.00,,,0.00,Wunderground v.1.15,2013-02-22 01:52:00,
2013-02-21 20:58:00,12.0,9.4,30.43,SW,235,3.0,4.0,89,0.00,,,0.00,Wunderground v.1.15,2013-02-22 01:58:00,
2013-02-21 21:04:00,12.1,9.5,30.44,West,277,3.0,12.0,89,0.00,,,0.00,Wunderground v.1.15,2013-02-22 02:04:00,
2013-02-21 21:10:00,12.1,9.5,30.43,NNE,26,3.0,12.0,89,0.00,,,0.00,Wunderground v.1.15,2013-02-22 02:10:00,
2013-02-21 21:15:00,12.1,9.5,30.43,West,278,2.0,12.0,89,0.00,,,0.00,Wunderground v.1.15,2013-02-22 02:15:00,
2013-02-21 21:21:00,12.1,9.5,30.43,WSW,256,1.0,12.0,89,0.00,,,0.00,Wunderground v.1.15,2013-02-22 02:21:00,
2013-02-21 21:26:00,12.1,9.5,30.43,SSW,192,2.0,12.0,89,0.00,,,0.00,Wunderground v.1.15,2013-02-22 02:26:00,
2013-02-21 21:32:00,12.1,9.5,30.43,WSW,255,2.0,12.0,89,0.00,,,0.00,Wunderground v.1.15,2013-02-22 02:32:00,
2013-02-21 21:38:00,12.1,9.5,30.43,NW,304,2.0,12.0,89,0.00,,,0.00,Wunderground v.1.15,2013-02-22 02:38:00,
2013-02-21 21:44:00,12.1,9.7,30.44,East,94,2.0,12.0,90,0.00,,,0.00,Wunderground v.1.15,2013-02-22 02:44:00,
2013-02-21 21:50:00,12.1,9.7,30.44,SSW,194,2.0,12.0,90,0.00,,,0.00,Wunderground v.1.15,2013-02-22 02:50:00,
2013-02-21 21:55:00,12.1,9.7,30.44,South,181,1.0,12.0,90,0.00,,,0.00,Wunderground v.1.15,2013-02-22 02:55:00,
2013-02-21 22:01:00,12.2,9.8,30.44,WNW,285,2.0,4.0,90,0.00,,,0.00,Wunderground v.1.15,2013-02-22 03:01:00,
2013-02-21 22:07:00,12.2,9.8,30.44,WNW,297,2.0,12.0,90,0.00,,,0.00,Wunderground v.1.15,2013-02-22 03:07:00,
2013-02-21 22:13:00,12.3,9.9,30.44,NNE,12,1.0,12.0,90,0.00,,,0.00,Wunderground v.1.15,2013-02-22 03:13:00,
2013-02-21 22:18:00,12.3,10.2,30.44,West,259,1.0,12.0,91,0.00,,,0.00,Wunderground v.1.15,2013-02-22 03:18:00,
2013-02-21 22:24:00,12.4,10.3,30.44,NNE,12,2.0,12.0,91,0.00,,,0.00,Wunderground v.1.15,2013-02-22 03:24:00,
2013-02-21 22:29:00,12.4,10.3,30.44,SSW,204,1.0,12.0,91,0.00,,,0.00,Wunderground v.1.15,2013-02-22 03:29:00,
2013-02-21 22:35:00,12.4,10.3,30.44,WNW,290,1.0,12.0,91,0.00,,,0.00,Wunderground v.1.15,2013-02-22 03:35:00,
2013-02-21 22:41:00,12.4,10.5,30.44,NNW,338,2.0,3.0,92,0.00,,,0.00,Wunderground v.1.15,2013-02-22 03:41:00,
2013-02-21 22:47:00,12.5,10.6,30.44,West,259,2.0,12.0,92,0.00,,,0.00,Wunderground v.1.15,2013-02-22 03:47:00,
2013-02-21 22:53:00,12.5,10.6,30.44,SW,220,1.0,12.0,92,0.00,,,0.00,Wunderground v.1.15,2013-02-22 03:53:00,
2013-02-21 22:59:00,12.5,10.6,30.45,West,272,1.0,12.0,92,0.00,,,0.00,Wunderground v.1.15,2013-02-22 03:59:00,
2013-02-21 23:04:00,12.6,10.7,30.45,North,360,1.0,12.0,92,0.00,,,0.00,Wunderground v.1.15,2013-02-22 04:04:00,
2013-02-21 23:10:00,12.6,10.7,30.45,SSE,163,1.0,1.0,92,0.00,,,0.00,Wunderground v.1.15,2013-02-22 04:10:00,
2013-02-21 23:16:00,12.8,10.9,30.46,WSW,243,1.0,12.0,92,0.00,,,0.00,Wunderground v.1.15,2013-02-22 04:16:00,
2013-02-21 23:22:00,12.8,10.9,30.46,SSE,158,1.0,12.0,92,0.00,,,0.00,Wunderground v.1.15,2013-02-22 04:22:00,
2013-02-21 23:27:00,12.9,11.0,30.46,WNW,293,0.0,12.0,92,0.00,,,0.00,Wunderground v.1.15,2013-02-22 04:27:00,
2013-02-21 23:33:00,13.0,11.1,30.46,SE,140,0.0,12.0,92,0.00,,,0.00,Wunderground v.1.15,2013-02-22 04:33:00,
2013-02-21 23:39:00,13.0,11.1,30.46,SSW,201,1.0,12.0,92,0.00,,,0.00,Wunderground v.1.15,2013-02-22 04:39:00,
2013-02-21 23:45:00,13.1,11.2,30.46,SE,138,1.0,12.0,92,0.00,,,0.00,Wunderground v.1.15,2013-02-22 04:45:00,
2013-02-21 23:51:00,13.2,11.3,30.45,SSW,210,1.0,12.0,92,0.00,,,0.00,Wunderground v.1.15,2013-02-22 04:51:00,
2013-02-21 23:56:00,13.2,11.3,30.45,SW,219,0.0,12.0,92,0.00,,,0.00,Wunderground v.1.15,2013-02-22 04:56:00,